Flag for Hong Kong Weather past 2 weeks in Hong Kong, Hong Kong

Now
79 °F

Scattered clouds.


Feels Like: 82 °F
Forecast: 77 / 82 °F
Wind: 14 mph from Southeast

Location: National Airport

Current Time: Apr 18, 2015 at 11:26:39 AM

Latest Report: Apr 18, 2015 at 11:00 AM


Visibility: N/A

Pressure: 29.86 "Hg

Humidity: 84%

Dew point: 73 °F

Location of Hong KongLocation

Historic Weather in Hong Kong — Graph

°F

Hong Kong temperature yesterday

Maximum temperature yesterday: 81 °F (at 11:30 AM)
Minimum temperature yesterday: 70 °F (at 2:30 AM)
Average temperature yesterday: 75 °F

Past Weeks' High & Low Weather Summary

 TemperatureHumidityPressure
High86 °F (Apr 5, 11:30 AM)94% (Apr 9, 10:30 PM)30.15 "Hg (Apr 9, 10:30 PM)
Low59 °F (Apr 9, 2:00 AM)17% (Apr 14, 10:00 AM)29.68 "Hg (Apr 3, 4:00 PM)
Average73 °F69%29.97 "Hg
* Reported Apr 3 10:00 AM — Apr 18 10:00 AM, Hong Kong, Weather by CustomWeather, © 2015

Note: Actual official high and low records may vary slightly from our data, if they occured in-between our weather recording intervals... More about our weather records

Advertising

Hong Kong weather history for previous 24 hours

 ConditionsComfort  
Time TempWeatherWind HumidityBarometerVisibility
10:00 AM
Sat, Apr 18
81 °FScattered clouds.15 mph74%29.86 "HgN/A
9:30 AM79 °FScattered clouds.16 mph79%29.86 "HgN/A
9:00 AM79 °FScattered clouds.17 mph79%29.86 "HgN/A
8:30 AM79 °FScattered clouds.14 mph79%29.86 "HgN/A
8:00 AM79 °FLight rain. Scattered clouds.15 mph79%29.86 "HgN/A
7:30 AM77 °FScattered clouds.10 mph83%29.83 "HgN/A
7:00 AM77 °FScattered clouds.13 mph83%29.83 "HgN/A
6:30 AM79 °FScattered clouds.14 mph74%29.83 "HgN/A
6:00 AM77 °FPassing clouds.12 mph79%29.80 "HgN/A
5:30 AM77 °FPassing clouds.9 mph79%29.80 "HgN/A
4:30 AM75 °FPassing clouds.9 mph83%29.80 "HgN/A
4:00 AM75 °FPassing clouds.9 mph83%29.80 "HgN/A
3:30 AM75 °FPassing clouds.13 mph83%29.80 "HgN/A
3:00 AM75 °FPassing clouds.12 mph83%29.83 "HgN/A
2:30 AM75 °FPassing clouds.14 mph83%29.83 "HgN/A
2:00 AM77 °FPassing clouds.14 mph79%29.83 "HgN/A
1:30 AM75 °FPassing clouds.9 mph78%29.86 "HgN/A
1:00 AM77 °FPassing clouds.8 mph74%29.86 "HgN/A
12:30 AM77 °FPassing clouds.10 mph74%29.86 "HgN/A
12:00 AM75 °FPassing clouds.9 mph78%29.86 "HgN/A
11:30 PM
Fri, Apr 17
77 °FPassing clouds.8 mph74%29.86 "HgN/A
11:00 PM75 °FPassing clouds.8 mph74%29.86 "HgN/A
10:30 PM75 °FPassing clouds.8 mph74%29.86 "HgN/A
10:00 PM75 °FPassing clouds.12 mph74%29.86 "HgN/A
9:30 PM77 °FPassing clouds.13 mph69%29.86 "HgN/A
9:00 PM75 °FPassing clouds.10 mph74%29.86 "HgN/A
8:30 PM75 °FPassing clouds.13 mph69%29.83 "HgN/A
8:00 PM75 °FPassing clouds.8 mph69%29.83 "HgN/A
7:30 PM77 °FPassing clouds.8 mph65%29.83 "HgN/A
7:00 PM75 °FPassing clouds.7 mph69%29.83 "HgN/A
6:30 PM77 °FPassing clouds.12 mph65%29.80 "HgN/A
6:00 PM75 °FPassing clouds.10 mph69%29.83 "HgN/A
5:30 PM77 °FPassing clouds.13 mph65%29.83 "HgN/A
5:00 PM77 °FPassing clouds.15 mph65%29.83 "HgN/A
4:30 PM79 °FPassing clouds.16 mph61%29.83 "HgN/A
4:00 PM79 °FPassing clouds.16 mph58%29.83 "HgN/A
3:30 PM79 °FPassing clouds.17 mph58%29.83 "HgN/A
3:00 PM79 °FPassing clouds.16 mph58%29.86 "HgN/A
2:30 PM79 °FPassing clouds.16 mph58%29.86 "HgN/A
2:00 PM79 °FPassing clouds.13 mph54%29.89 "HgN/A
1:30 PM79 °FPassing clouds.15 mph58%29.89 "HgN/A
1:00 PM79 °FPassing clouds.15 mph54%29.89 "HgN/A
12:30 PM79 °FPassing clouds.14 mph58%29.92 "HgN/A
12:00 PM79 °FPassing clouds.14 mph58%29.92 "HgN/A
11:30 AM81 °FPassing clouds.12 mph54%29.95 "HgN/A
11:00 AM79 °FPassing clouds.8 mph54%29.95 "HgN/A
Weather by CustomWeather, © 2015

See weather overviewHow to use our weather pages